This demonstration page uses our WeatherBlox Daily Observations layout. Learn more.

41.55636, -103.73856

Hourly Observations for January 22, 2019

Temp ( °F °C ) Dew Point ( °F °C ) Humidity (%) Winds ( mph kmh ) Pressure ( in mb ) Visibility ( mi km ) Precip ( " mm )
12:53 am 00:53 Cloudy with Light Snow 19 -7.2 14 -10 81 81 NNW 14 22 29.94 1014 5 8.04672 0.001 0.001
1:05 am 01:05 Cloudy with Light Snow 18 -7.8 15 -9.4 88 88 NW 12 19 30.12 1020 2.5 4.02336 0.001 0.001
1:18 am 01:18 Cloudy with Light Snow 18 -7.8 15 -9.4 88 88 NW 13 20 30.12 1020 3 4.828032 0.001 0.001
1:53 am 01:53 Cloudy 19 -7.2 15 -9.4 84 84 NW 12 19 29.97 1015 9 14.484096 0.01 0.254
2:10 am 02:10 Cloudy with Light Snow 19 -7 18 -8 93 93 NW 15 24 30.15 1021 1.75 2.816352 0 0
2:18 am 02:18 Cloudy with Light Snow 19 -7.2 17 -8.3 92 92 NW 17 28 30.15 1021 1.25 2.01168 0.001 0.001
2:45 am 02:45 Cloudy with Light Snow 19 -7.2 17 -8.3 92 92 NW 13 20 30.15 1021 2 3.218688 0.001 0.001
2:53 am 02:53 Cloudy with Light Snow 20 -6.7 18 -7.8 92 92 WNW 10 17 29.97 1015 2 3.218688 0.001 0.001
3:06 am 03:06 Cloudy with Light Snow 19 -7 18 -8 93 93 WNW 9 15 30.15 1021 3 4.828032 0 0
3:53 am 03:53 Cloudy 24 -4.4 20 -6.7 84 84 NW 17 28 30 1016 10 16.09344 0.01 0.254
4:53 am 04:53 Cloudy 24 -4.4 19 -7.2 81 81 NW 17 28 30.06 1018 10 16.09344 0 0
5:53 am 05:53 Cloudy with Light Snow 24 -4.4 21 -6.1 88 88 NW 17 28 30.06 1018 3 4.828032 0.001 0.001
6:15 am 06:15 Cloudy with Light Snow 24 -4.4 20 -6.7 84 84 NW 16 26 30.18 1022 4 6.437376 0.001 0.001
6:49 am 06:49 Cloudy with Light Snow 25 -4 21 -6 86 86 NW 17 28 30.21 1023 2.5 4.02336 0.001 0.001
6:53 am 06:53 Cloudy with Light Snow 24 -4.4 21 -6.1 88 88 NNW 17 28 30.12 1020 3 4.828032 0.001 0.001
7:53 am 07:53 Cloudy 24 -4.4 20 -6.7 84 84 NNW 15 24 30.15 1021 10 16.09344 0.001 0.001
8:06 am 08:06 Cloudy 25 -4 19 -7 80 80 NNW 15 24 30.24 1024 10 16.09344 0 0
8:35 am 08:35 Mostly Cloudy 26 -3.3 20 -6.7 78 78 NNW 22 35 30.27 1025 10 16.09344 0 0
8:53 am 08:53 Mostly Cloudy 26 -3.3 19 -7.2 75 75 NNW 23 37 30.18 1022 10 16.09344 0 0
9:53 am 09:53 Cloudy 27 -2.8 20 -6.7 75 75 NNW 21 33 30.24 1024 10 16.09344 0 0
10:53 am 10:53 Mostly Cloudy 28 -2.2 20 -6.7 72 72 NNW 21 33 30.24 1024 10 16.09344 0 0
11:53 am 11:53 Sunny 30 -1.1 20 -6.7 66 66 NW 23 37 30.21 1023 10 16.09344 0 0
12:53 pm 12:53 Sunny 31 -0.6 21 -6.1 67 67 NW 20 31 30.21 1023 10 16.09344 0 0
1:53 pm 13:53 Mostly Sunny 32 0 21 -6.1 64 64 NW 18 30 30.18 1022 10 16.09344 0 0
2:53 pm 14:53 Sunny 32 0 21 -6.1 64 64 NW 20 31 30.18 1022 10 16.09344 0 0
3:53 pm 15:53 Sunny 31 -0.6 20 -6.7 64 64 NW 14 22 30.15 1021 10 16.09344 0 0
4:53 pm 16:53 Sunny 27 -2.8 19 -7.2 72 72 NW 10 17 30.18 1022 10 16.09344 0 0
5:53 pm 17:53 Clear 22 -5.6 17 -8.3 82 82 NW 5 7 30.21 1023 10 16.09344 0 0
6:53 pm 18:53 Clear 19 -7.2 16 -8.9 88 88 WNW 5 7 30.21 1023 10 16.09344 0 0
7:53 pm 19:53 Clear 14 -10 12 -11.1 92 92 NNW 7 11 30.21 1023 10 16.09344 0 0
8:53 pm 20:53 Clear 14 -10 12 -11.1 92 92 Calm 30.21 1023 10 16.09344 0 0
9:53 pm 21:53 Clear 16 -8.9 12 -11.1 84 84 WNW 5 7 30.18 1022 10 16.09344 0 0
10:53 pm 22:53 Clear 13 -10.6 11 -11.7 92 92 NNW 5 7 30.15 1021 10 16.09344 0 0
11:53 pm 23:53 Clear 10 -12.2 8 -13.3 92 92 N 6 9 30.18 1022 10 16.09344 0 0

Powered by AerisWeather